Location: ????????
(56.1167°N, 38.6333°E)
Time: 22:06:50
(UTC+00:00)

Resurs 1-3 - Pass Details

Date: 18 November 2025
Orbit: 613 x 615 km, 97.7° (Epoch: 06 December)

Event Time Altitude Azimuth Distance (km) Brightness Sun altitude
Rises 15:20:35 0° 155° (SSE) 2,876 6.8 -17.3°
Reaches altitude 10° 15:22:46 10° 152° (SSE) 1,975 5.9 -17.6°
Maximum altitude 15:27:01 66° 71° (ENE) 676 3.4 -18.2°
Drops below altitude 10° 15:31:19 10° 349° (N) 1,989 6.2 -18.8°
Sets 15:33:31 0° 347° (NNW) 2,899 7.1 -19.1°
